RH
45 45 45 45 46 45 44 42 40 40 40 41 42 43 44 46 47 48 50 55 65 76 84 82 76 74 76 77 79 82 86 87 86 84 82 83 88 88 81 72 65 57 46 40 39 38 38 36 34 32 30 29 28 27 26 24 22 22 21 20 20 19 18 17 16 15 15 14 14 14 13 13 13 12 12 11 10 9 9 9 8 8 8 9 9
51 52 53 54 54 53 51 48 45 43 42 41 42 43 45 46 47 49 50 52 58 67 78 84 80 77 77 78 79 80 82 85 87 88 87 87 89 91 88 79 72 63 50 42 40 39 39 38 36 34 32 30 28 27 25 23 22 21 20 20 18 17 17 16 15 15 15 15 15 15 14 14 14 13 12 12 12 11 10 9 9 8 9 10 10
54 56 59 61 62 60 57 54 51 48 45 43 43 43 45 47 48 51 52 54 56 59 69 79 80 79 79 80 80 80 81 85 89 93 94 92 91 93 91 84 78 71 56 44 42 41 40 40 39 37 34 31 29 28 26 24 23 21 20 19 17 16 16 16 16 15 16 16 16 16 16 16 15 15 13 12 12 12 11 10 10 10 9 9 10
56 58 61 64 65 64 61 58 55 52 48 45 43 43 45 47 50 53 54 56 57 58 64 72 78 81 83 83 83 83 84 87 92 96 97 94 93 96 95 87 83 80 66 50 44 43 42 42 43 40 37 34 31 29 27 24 23 22 20 19 17 17 17 17 17 17 17 18 18 18 18 17 17 16 15 14 13 12 12 12 12 12 10 9 10
60 61 62 63 65 64 62 60 57 53 48 43 41 40 41 45 49 54 57 59 61 61 63 69 76 84 88 87 87 87 88 90 92 96 98 96 95 98 98 92 87 86 77 60 50 47 46 45 47 45 41 38 34 30 28 26 24 23 21 19 19 18 18 18 18 18 18 19 19 19 19 19 18 17 16 16 16 17 17 15 14 14 14 13 12
62 62 61 61 62 63 61 59 54 49 44 40 39 39 40 43 48 53 58 61 64 65 65 67 73 82 87 88 88 89 89 90 92 96 99 98 97 99 99 96 91 90 86 73 60 54 51 49 51 50 46 43 39 34 31 28 26 24 22 21 20 20 20 20 19 20 20 20 20 20 20 20 20 19 18 17 17 18 20 21 19 18 17 17 17
61 61 61 61 61 60 57 53 48 44 42 40 39 38 39 43 48 53 57 61 66 69 69 69 72 78 84 86 89 90 90 92 95 98 100 100 99 99 98 97 96 94 91 83 71 63 57 54 55 55 52 49 45 39 34 31 28 26 24 23 23 22 22 21 21 21 21 21 20 20 20 20 21 21 20 18 16 15 16 20 23 24 21 19 17
62 63 61 60 58 54 50 47 44 43 42 43 43 40 39 42 49 55 59 62 66 70 73 74 75 79 84 87 90 93 94 97 99 100 101 100 99 100 99 98 99 99 96 89 79 71 65 61 60 60 57 54 51 45 40 35 31 28 27 25 25 24 24 24 23 23 23 22 21 21 20 20 21 22 21 20 20 19 18 18 20 21 22 20 17
66 66 65 61 56 51 47 45 45 45 45 47 47 44 42 45 51 57 62 65 67 70 74 78 80 82 86 89 92 95 96 97 99 100 101 101 100 100 100 99 99 100 99 93 85 78 73 70 68 66 63 60 57 52 47 41 36 31 29 28 27 27 26 26 26 25 25 24 23 22 21 20 20 23 24 24 23 23 22 21 20 20 21 23 22
80 73 70 67 61 55 51 49 48 48 50 51 50 47 46 48 52 58 62 65 68 71 73 79 84 87 90 93 96 98 98 98 99 101 101 100 100 100 100 100 100 100 100 97 90 84 83 80 76 72 69 66 63 59 54 48 42 37 33 30 29 29 29 29 29 28 28 27 26 25 24 23 22 23 26 27 26 25 24 22 22 23 23 24 26
90 80 74 71 67 62 56 52 51 52 53 55 53 50 48 50 53 56 59 61 64 68 72 78 85 90 94 98 100 100 100 100 100 101 100 100 100 100 100 100 100 100 100 100 95 92 92 89 84 79 76 73 70 66 61 56 50 44 39 35 33 32 32 32 31 31 31 30 29 28 28 28 26 25 26 28 28 27 27 26 24 25 25 24 25
83 79 76 74 71 65 59 55 54 54 54 55 52 48 47 51 54 56 58 60 61 62 67 74 82 90 96 100 101 100 100 100 100 100 100 100 100 100 100 100 100 100 100 100 100 99 99 97 92 86 82 79 77 73 69 64 59 52 46 41 38 35 34 34 34 34 34 34 33 32 31 32 31 29 28 29 31 31 31 31 28 28 29 27 25
82 80 78 75 72 67 61 58 57 54 51 50 47 44 45 50 54 56 58 61 62 62 63 68 77 89 97 100 100 100 100 100 100 100 100 100 100 100 100 100 100 100 100 100 100 100 101 100 98 94 88 85 82 80 77 73 68 62 55 49 45 41 38 37 37 37 37 37 38 37 35 35 35 34 32 31 34 34 34 35 33 32 33 30 26
89 84 79 76 74 69 63 61 57 50 46 44 42 42 45 49 53 56 57 59 62 63 64 66 74 87 96 100 100 100 100 100 100 100 100 100 100 100 100 100 100 100 100 100 100 100 100 100 101 99 95 91 88 85 83 81 78 74 67 60 54 48 44 42 41 41 41 41 42 42 40 39 38 38 37 36 37 37 36 37 37 35 35 32 28
92 86 81 79 76 70 65 61 53 44 41 42 42 44 45 46 48 49 51 53 56 60 64 67 72 81 91 97 99 100 100 100 100 100 100 100 100 100 100 100 100 100 100 100 100 100 100 100 100 101 99 97 93 90 89 88 87 85 80 74 67 59 52 49 45 44 44 44 45 46 45 44 43 42 42 41 43 43 40 40 39 36 35 32 26
94 88 83 81 77 71 65 57 46 40 41 44 45 44 43 42 42 42 42 45 49 54 62 68 73 80 91 97 99 100 100 100 100 100 100 100 100 100 100 100 100 100 100 100 100 100 100 100 100 100 101 100 99 97 96 96 94 93 90 86 81 73 64 58 53 50 49 48 49 50 50 50 49 48 47 45 45 46 45 44 41 37 36 31 24
95 89 85 81 76 70 62 51 42 40 44 45 44 43 41 41 41 41 41 42 46 51 60 69 77 85 95 101 100 99 100 100 100 100 100 100 100 100 100 100 100 100 100 100 100 100 100 100 100 100 100 100 101 100 100 100 100 99 97 95 92 87 79 71 63 57 54 53 53 54 54 54 55 54 54 51 49 49 48 45 43 39 36 31 21
93 87 85 81 74 66 55 45 42 44 47 47 45 44 44 44 44 44 44 44 46 49 56 68 80 90 97 100 100 100 100 100 100 100 100 100 100 100 100 100 100 100 100 100 100 100 100 100 100 100 100 100 100 100 100 101 101 101 102 100 100 97 91 84 76 67 62 59 58 58 57 58 60 60 60 58 56 54 51 46 44 41 35 30 20
89 86 84 78 70 59 48 43 46 49 49 48 48 48 48 49 50 50 50 50 51 53 55 63 77 91 98 99 99 100 100 100 100 100 100 100 100 100 100 100 100 100 100 100 100 100 100 100 100 100 100 100 100 100 101 101 101 101 102 102 102 101 96 92 87 78 72 67 64 64 62 62 64 64 64 64 60 57 53 47 45 41 33 27 18
88 86 80 72 62 51 46 48 51 52 51 50 52 53 53 54 56 57 59 59 59 60 60 62 71 85 96 101 100 100 100 100 100 100 100 100 100 100 100 100 100 100 100 100 100 100 100 100 100 100 100 100 100 100 101 101 100 100 101 101 102 101 99 98 95 88 83 78 74 72 70 70 70 69 68 67 63 59 55 48 44 40 31 22 17
88 83 74 64 54 49 51 55 55 54 53 53 54 57 58 60 63 66 68 70 70 70 71 72 75 83 93 100 102 101 101 100 100 100 100 100 100 100 100 100 100 100 100 100 100 100 100 100 100 100 100 100 100 100 100 100 100 100 100 100 101 101 100 101 100 95 91 88 83 81 80 79 78 77 73 70 66 60 55 49 45 38 28 19 16
89 80 67 57 52 54 58 59 57 57 56 55 57 60 63 67 72 75 76 78 79 80 81 82 84 87 92 97 100 101 101 101 100 101 101 100 100 100 100 100 100 100 100 100 100 100 100 101 100 100 100 100 100 100 100 100 100 100 100 100 100 100 100 101 102 100 97 94 91 89 88 87 87 84 79 73 68 60 53 49 43 35 25 19 19
84 72 61 56 58 61 62 60 59 59 58 58 59 62 66 72 77 80 81 82 83 84 85 86 87 89 92 95 99 100 101 100 100 100 100 101 101 100 100 100 100 100 99 100 100 100 100 100 100 100 100 100 100 100 100 100 100 100 100 100 100 100 100 100 100 100 99 98 96 95 95 95 93 89 83 76 67 58 51 46 39 31 23 19 29
75 65 62 62 64 64 63 62 62 61 61 62 64 66 70 74 78 79 80 80 80 81 82 84 86 87 90 93 97 100 101 102 101 101 102 101 101 101 101 100 100 100 100 100 100 100 100 100 100 100 100 100 100 100 100 100 100 100 100 100 100 100 100 100 100 100 100 101 100 99 99 99 97 93 86 76 64 54 48 42 35 28 21 24 44
68 66 67 68 67 66 64 64 64 65 66 67 69 72 74 75 77 77 76 75 74 73 74 77 79 81 84 88 93 98 102 103 103 102 102 101 100 100 100 100 100 100 100 100 100 100 100 100 100 100 100 100 100 100 100 100 100 100 100 100 101 101 101 101 100 100 101 101 101 101 101 101 99 95 87 75 62 51 44 37 32 25 20 30 56
69 71 71 70 69 68 67 68 69 71 73 75 76 77 76 75 75 73 71 68 66 64 63 64 65 67 70 75 82 88 95 101 103 102 101 101 101 100 100 100 100 100 100 100 100 100 100 100 100 100 100 100 100 100 100 100 100 100 100 100 100 101 101 100 100 100 100 101 101 102 102 102 100 96 86 73 58 47 40 32 27 26 27 40 64
74 74 74 74 73 72 72 73 75 77 80 81 81 80 77 74 70 65 60 55 50 47 45 43 43 43 46 53 62 70 82 93 99 101 101 101 100 100 100 100 100 100 100 100 100 100 100 100 100 100 100 100 100 100 100 100 100 100 100 100 100 100 100 100 100 100 100 100 101 101 101 102 101 95 85 69 53 44 38 30 24 27 34 47 66
78 79 79 78 77 77 77 78 80 82 83 83 82 78 72 65 57 48 42 36 31 28 25 23 23 23 25 31 37 45 58 73 84 92 98 100 100 101 101 100 100 100 100 100 100 100 101 101 101 100 100 100 100 100 100 100 100 100 100 100 100 100 100 100 100 100 100 100 100 100 100 101 100 94 82 64 47 38 34 28 23 27 36 48 64
84 84 83 82 81 81 82 83 84 83 83 81 75 66 58 50 40 31 25 22 19 18 17 15 15 16 17 19 20 23 32 45 58 69 79 87 93 98 99 100 100 100 100 100 100 100 100 101 101 100 100 100 100 100 100 100 100 100 100 100 100 100 100 100 100 100 100 100 100 100 101 101 99 91 77 59 43 34 30 26 23 28 38 52 66
89 88 86 86 86 87 88 88 86 84 80 75 63 47 36 31 27 21 18 17 16 16 16 15 15 15 15 16 18 20 22 28 37 48 58 67 77 87 95 98 99 100 101 100 100 100 101 101 101 100 100 100 100 100 100 100 100 100 100 100 100 100 100 100 100 100 100 100 100 100 101 101 96 86 71 54 38 31 27 24 25 32 43 57 68
90 89 89 89 90 90 90 88 85 79 70 59 47 33 23 20 19 18 17 16 16 15 16 15 16 16 16 16 19 24 28 30 34 40 48 55 63 74 86 94 96 98 100 99 99 100 102 102 101 100 100 101 101 100 100 100 100 100 100 100 100 99 99 99 99 100 100 100 101 101 101 99 91 79 63 46 35 31 30 28 32 41 51 63 70
90 90 91 92 92 91 88 83 75 65 52 41 32 24 19 17 17 17 16 14 14 13 13 13 14 15 16 17 18 21 27 32 36 39 44 49 56 66 77 87 92 95 98 100 100 100 101 102 101 100 100 101 101 100 100 100 100 100 100 100 100 99 98 96 97 100 100 100 101 102 100 95 85 71 54 39 31 34 39 41 47 55 64 72 74
92 93 94 94 91 87 80 70 59 47 37 28 21 17 15 13 12 12 11 11 10 10 10 10 11 12 15 17 18 19 23 28 32 36 39 42 50 59 68 78 87 92 95 98 101 102 102 101 100 100 101 100 100 101 101 101 100 100 100 100 100 100 99 97 98 101 101 101 102 100 95 88 75 59 45 36 33 37 46 54 60 67 74 76 75
95 95 95 92 85 77 66 55 43 33 25 19 15 12 10 9 8 7 7 7 8 8 8 8 9 10 13 16 18 19 22 26 30 34 37 40 47 56 63 71 81 87 90 94 99 102 103 103 102 103 103 103 103 102 102 101 101 101 101 100 100 100 100 100 100 101 102 102 101 96 87 77 64 50 41 38 39 43 52 61 68 75 78 76 73
97 95 90 83 72 61 49 39 29 22 16 13 10 9 7 7 7 7 7 6 7 7 8 8 8 9 9 11 13 15 17 20 24 27 30 34 41 50 57 66 76 84 89 91 94 97 100 102 103 103 104 105 104 103 102 102 101 100 100 99 100 101 101 101 101 102 102 101 96 88 78 67 55 45 42 45 50 56 63 71 76 79 78 75 74
93 86 77 65 52 41 32 24 18 14 11 9 8 8 7 7 7 7 7 7 7 7 8 8 8 8 8 8 9 10 12 14 16 19 23 27 34 42 51 62 71 80 85 87 88 91 93 94 96 98 100 102 102 102 102 101 99 100 99 98 100 103 102 101 102 102 100 95 88 79 69 59 50 45 47 54 60 66 74 82 84 81 79 77 74
81 69 56 43 33 25 19 15 12 10 9 8 9 9 8 8 8 8 8 8 8 9 9 9 9 10 9 9 9 10 12 14 16 19 24 29 35 41 49 59 66 73 77 78 79 81 82 83 85 86 88 90 93 94 96 97 97 98 99 99 101 103 102 101 100 97 92 86 79 70 63 54 48 48 55 64 71 76 82 85 83 81 81 77 68
61 49 37 28 22 17 14 12 10 10 10 10 10 10 10 10 10 10 10 10 10 11 11 12 12 12 12 11 11 11 12 16 21 26 32 38 46 53 58 62 66 68 70 71 71 72 72 73 73 73 74 76 78 80 83 86 89 92 95 97 98 99 98 97 94 88 83 78 72 65 58 52 51 56 63 73 83 89 90 86 83 82 80 72 57
39 31 25 20 15 13 12 12 12 13 13 13 13 13 13 14 14 14 14 15 15 16 16 16 16 15 14 13 12 12 13 17 24 34 42 50 61 71 74 74 73 72 71 70 69 68 68 67 66 67 67 67 68 69 70 72 76 80 85 88 91 93 92 89 84 80 77 72 67 61 57 57 62 69 76 85 93 94 90 87 84 80 74 61 41
24 20 18 15 14 14 14 14 15 16 16 17 18 19 19 19 19 20 21 21 22 22 21 20 20 18 16 15 14 13 15 21 30 42 54 63 73 81 83 82 80 77 75 73 71 69 68 67 66 66 66 66 68 68 69 70 71 73 76 79 82 84 83 80 77 75 72 69 65 63 65 71 77 83 89 95 97 93 90 88 84 75 61 43 23
18 17 16 16 16 18 18 19 20 21 22 24 25 26 26 27 27 27 28 28 28 27 26 24 23 21 18 17 16 15 18 26 38 53 67 77 82 85 85 84 82 80 77 75 73 72 71 70 69 70 70 70 70 71 72 73 74 75 76 78 79 80 79 75 73 72 71 71 72 74 79 85 91 96 100 99 94 91 89 85 76 61 42 24 19
18 18 19 20 21 22 24 25 27 28 30 32 33 34 34 35 34 35 35 34 32 31 29 27 26 23 21 19 18 17 23 36 54 71 84 90 90 89 86 84 82 80 78 77 77 77 77 76 75 75 76 75 75 75 76 77 77 78 79 81 82 84 83 79 78 79 81 81 84 88 90 94 100 105 103 97 93 92 87 76 61 43 25 21 38
21 23 24 25 26 27 29 32 33 36 38 41 42 42 42 42 41 41 40 37 36 35 32 30 29 26 23 22 21 23 34 54 76 91 97 98 96 93 89 86 85 83 82 81 81 82 82 81 80 79 79 79 80 80 80 81 82 82 82 84 86 88 88 88 90 94 94 93 94 95 96 100 104 103 99 96 95 90 77 61 44 27 23 39 69
26 28 29 31 32 33 35 37 39 43 46 48 48 48 47 47 47 46 43 41 40 37 35 34 32 29 26 25 25 33 53 77 94 102 104 103 100 96 92 90 90 90 88 87 86 86 85 84 84 84 84 83 84 84 84 85 86 86 86 88 90 91 94 98 100 100 100 99 99 99 100 102 102 99 97 97 91 77 60 43 29 25 40 69 91
31 33 35 38 40 42 43 45 48 51 53 54 54 53 52 52 52 50 48 45 42 40 39 38 34 32 30 30 33 48 73 93 101 103 106 106 103 99 97 96 96 95 94 92 91 89 88 89 91 91 91 91 92 93 92 92 93 94 95 96 98 100 103 104 103 102 101 101 101 102 102 100 99 100 100 92 76 58 41 29 27 42 70 92 99
36 38 41 44 47 50 52 54 57 58 58 58 58 58 58 57 56 54 52 48 45 44 43 41 37 36 35 35 45 66 90 101 101 102 107 108 105 102 102 101 100 99 97 95 94 94 95 97 98 98 98 99 100 101 101 100 100 101 102 101 102 104 105 105 104 103 102 102 103 103 100 98 101 102 92 73 54 40 30 29 45 72 93 98 98
42 45 47 50 53 56 59 61 63 63 63 63 62 62 62 61 59 58 55 52 49 48 46 43 41 39 38 45 62 85 101 104 100 100 104 106 104 103 103 104 104 102 98 97 99 102 103 104 104 102 102 103 103 103 103 102 101 102 102 101 101 103 104 105 104 101 101 102 102 100 100 102 101 89 69 51 39 32 32 48 74 94 99 97 98
49 52 55 57 59 61 64 66 66 66 67 67 67 66 66 65 64 62 59 55 52 51 49 47 45 42 45 61 84 101 106 103 100 100 103 104 103 102 104 106 106 103 100 102 105 105 105 106 105 102 102 103 102 101 101 100 101 102 101 100 100 101 101 101 101 100 101 101 100 100 102 99 85 64 47 39 34 35 49 74 95 101 98 98 101
58 62 64 65 65 66 68 68 69 69 69 70 70 71 71 70 69 67 63 59 56 53 51 49 48 47 56 78 99 108 106 102 100 100 102 103 102 101 103 104 104 103 104 107 107 105 102 102 101 100 100 101 101 100 100 101 101 101 101 100 100 100 100 100 101 101 100 100 101 101 95 79 59 45 39 36 38 52 76 95 102 100 99 100 101
67 70 71 71 71 71 72 71 71 71 71 72 74 76 77 76 74 71 66 62 58 56 54 52 50 54 69 90 104 106 104 102 101 100 101 102 100 99 100 101 102 104 105 106 105 103 101 100 100 101 100 100 100 100 100 100 100 100 101 100 100 100 100 101 100 100 100 102 99 88 71 53 43 39 37 41 56 79 97 101 99 99 101 101 100
73 75 76 76 76 76 77 77 77 76 76 77 79 80 81 81 79 75 70 65 61 59 58 55 55 66 85 100 106 105 103 102 100 99 101 101 100 100 100 101 101 102 103 103 102 101 100 100 101 101 100 100 101 100 100 100 101 100 100 100 100 100 100 100 100 101 101 95 81 63 48 42 39 39 44 60 83 98 101 99 99 101 100 99 100
Wind_Speed
30 30 31 32 33 34 34 34 35 35 35 35 35 35 35 36 37 38 38 39 40 40 40 40 39 38 38 38 39 40 39 37 36 36 37 37 36 35 34 35 34 32 30 28 27 27 27 27 26 26 25 25 24 23 22 21 20 19 19 18 18 17 17 17 17 17 17 17 17 17 17 18 19 20 21 22 24 25 25 26 27 28 28 29 30
30 31 31 32 33 34 35 36 36 36 36 37 37 37 37 37 37 38 39 39 40 41 41 41 41 41 39 39 39 40 40 39 37 38 38 37 36 35 34 35 35 34 31 28 27 27 28 27 27 26 25 25 24 23 22 21 20 19 18 18 17 17 18 17 17 17 17 17 18 18 18 19 20 21 21 22 23 25 26 27 28 29 30 30 31
31 32 32 33 34 35 36 37 37 37 37 37 38 39 39 39 38 38 38 39 40 40 41 42 43 43 42 41 40 41 41 40 39 39 38 37 36 35 34 34 36 35 32 30 28 27 27 27 27 26 26 25 24 23 22 21 20 19 18 18 18 18 18 18 18 17 17 17 18 19 19 20 20 21 22 23 23 24 26 27 28 30 31 32 33
33 34 34 35 36 37 37 38 37 37 38 38 39 40 41 41 41 40 39 39 40 40 41 42 43 44 45 44 42 42 42 42 42 41 39 37 35 35 34 34 36 36 34 31 29 28 27 27 27 27 26 26 25 24 23 22 21 20 19 18 18 18 18 18 18 17 17 17 18 19 20 20 21 21 22 23 24 25 26 28 29 30 32 34 36
35 36 36 37 38 38 38 38 38 38 39 40 41 42 42 43 43 42 41 40 40 40 41 42 43 45 46 46 46 45 44 44 43 43 41 38 36 35 34 35 36 36 35 33 30 28 27 27 27 27 27 26 26 24 23 23 22 21 20 19 18 18 18 18 18 18 18 18 19 20 20 21 22 22 22 23 24 25 27 28 29 31 33 35 37
36 37 38 38 39 39 39 39 39 39 40 41 43 43 44 44 44 44 43 42 40 40 41 42 43 44 46 47 47 47 46 45 44 44 42 39 37 35 35 36 37 37 36 34 32 30 28 27 27 27 27 27 26 26 25 24 23 22 21 20 19 19 19 19 19 19 20 20 20 21 21 22 23 24 24 24 24 24 25 27 30 32 33 35 37
36 37 38 39 39 40 40 41 41 42 42 43 44 45 46 45 45 45 44 43 42 41 41 41 43 44 45 46 47 48 47 46 45 44 41 40 38 36 35 37 38 37 36 35 34 32 29 28 27 28 28 28 27 26 26 25 24 23 22 21 21 20 20 20 20 21 21 22 22 23 23 24 24 25 26 26 26 26 26 28 29 31 33 35 36
37 37 38 39 40 40 41 42 43 44 44 45 46 47 47 46 45 45 44 44 43 42 41 41 42 43 45 46 47 48 49 48 47 45 42 41 39 37 36 39 40 38 37 36 35 33 31 29 28 28 28 28 28 27 27 26 25 24 23 23 22 22 21 21 21 22 22 23 23 24 25 26 26 27 27 28 29 30 30 31 31 32 33 35 37
39 39 40 41 41 41 42 43 44 45 46 47 47 47 47 46 45 45 44 44 44 43 42 42 42 43 44 46 47 48 49 49 48 47 44 42 40 38 37 40 41 40 37 36 35 34 32 31 29 28 28 29 29 28 27 27 26 26 25 24 23 23 23 23 23 23 23 24 25 25 27 28 29 29 29 30 31 32 32 33 34 35 36 37 38
42 42 43 44 44 43 43 45 46 46 47 47 48 48 47 47 46 45 45 44 44 44 43 42 42 42 43 45 46 47 48 49 49 48 45 43 42 40 39 39 41 41 39 37 35 34 33 32 31 30 29 29 29 29 28 28 27 27 26 26 25 25 24 24 24 24 25 25 26 26 27 29 30 31 30 31 32 34 35 35 36 37 37 38 38
45 46 47 47 47 45 45 46 47 48 48 48 49 48 48 47 47 46 46 45 44 44 44 43 42 42 43 44 45 46 47 48 49 48 46 45 43 41 39 39 41 42 41 38 35 35 34 34 33 31 30 30 30 30 29 29 28 28 28 27 27 27 26 26 26 26 26 26 27 28 28 29 31 32 32 32 34 35 36 37 38 39 40 40 40
48 48 49 49 48 46 46 47 48 49 49 50 50 49 48 47 47 47 47 46 45 45 44 43 42 42 42 42 44 46 47 48 48 48 47 46 43 41 40 40 41 42 41 38 36 36 35 35 34 33 32 31 30 30 30 29 29 29 29 29 29 28 28 28 28 27 27 27 28 29 29 29 31 32 33 33 34 35 37 38 39 40 41 42 42
49 50 51 50 49 47 47 49 50 50 50 50 50 49 48 47 47 47 47 47 46 46 45 44 43 42 41 41 43 45 47 48 49 49 48 46 44 42 40 39 40 41 40 39 37 37 36 36 36 35 33 32 31 31 31 30 30 30 30 31 31 31 30 30 30 29 29 28 28 29 30 31 31 32 33 34 34 35 36 37 38 39 40 41 42
51 53 54 52 50 48 49 50 51 51 51 50 49 48 47 47 47 48 48 48 48 47 47 46 44 42 41 40 41 44 47 49 50 49 48 46 44 43 41 39 39 39 39 39 39 38 37 37 37 36 34 33 32 31 31 31 31 31 32 32 32 33 33 32 31 31 30 30 29 30 31 32 32 32 33 34 34 36 37 38 38 39 40 41 41
54 56 56 54 51 50 50 52 52 52 50 48 48 47 47 48 49 49 50 49 49 48 47 47 45 43 42 40 40 43 46 48 49 49 48 46 45 44 42 40 39 38 38 39 38 38 38 37 37 36 34 33 32 32 31 32 32 33 33 34 34 34 34 34 33 33 32 31 31 30 31 32 32 33 33 34 34 35 37 38 39 40 41 41 41
56 59 58 54 51 50 51 52 52 51 49 48 47 47 47 48 48 49 49 49 49 48 47 46 45 43 42 41 40 42 45 47 48 48 47 46 45 44 43 41 40 39 38 38 38 38 38 37 36 35 34 34 33 32 32 33 33 34 34 35 36 36 36 35 35 35 34 33 32 31 31 31 32 33 34 34 34 35 37 38 39 40 41 42 42
58 60 57 53 51 51 53 53 52 50 48 47 47 46 46 46 47 47 47 47 47 47 46 45 44 42 40 41 41 42 44 46 47 47 47 46 45 44 43 41 40 40 40 39 39 39 38 37 37 36 35 35 35 34 34 34 35 35 36 37 37 38 38 37 36 36 36 35 34 33 32 32 32 33 34 35 35 36 37 38 39 40 41 43 42
59 58 55 52 51 52 53 52 50 49 48 47 46 46 45 45 45 45 46 46 46 46 46 44 42 41 40 41 43 44 44 45 46 46 46 45 45 44 43 42 41 40 41 41 40 40 39 39 38 37 37 37 36 36 36 37 37 37 37 38 38 39 40 39 37 37 37 36 35 35 34 33 32 33 33 34 35 35 37 38 39 40 41 42 43
58 55 53 52 52 53 52 50 49 48 47 47 47 46 45 45 45 44 44 44 44 45 45 44 41 39 40 41 43 44 45 46 46 46 46 45 45 44 44 43 42 41 42 42 42 41 41 40 40 40 40 39 39 39 39 39 40 40 39 39 39 40 42 41 39 38 38 37 36 36 35 34 33 33 34 34 35 35 36 38 39 40 41 41 41
56 54 53 52 53 52 50 49 48 48 48 47 47 46 46 45 45 44 44 43 43 43 43 42 40 38 38 40 42 44 45 46 46 46 46 46 46 45 45 45 44 43 43 43 44 43 42 42 42 42 42 42 41 41 42 42 42 42 41 40 40 41 42 42 41 40 39 38 37 36 36 35 35 35 35 35 36 36 36 38 39 40 41 41 39
56 54 53 53 52 50 49 48 48 48 48 47 46 46 46 45 45 44 43 43 42 42 41 41 39 38 37 39 41 43 44 45 45 45 45 45 45 46 46 45 45 44 45 45 45 45 45 44 44 44 44 44 44 44 43 43 44 44 42 41 41 43 43 42 41 40 39 38 38 37 36 36 35 35 36 36 36 36 37 38 39 40 41 40 38
56 53 53 52 51 49 48 48 48 48 48 47 47 46 46 45 44 44 43 42 41 41 40 40 39 39 38 38 40 41 42 43 43 43 43 43 44 44 44 44 44 45 45 45 46 46 46 46 46 46 46 45 45 45 45 44 44 44 43 42 42 43 43 42 41 40 39 38 38 37 36 36 36 35 36 36 36 36 37 38 39 40 40 38 37
55 53 52 51 49 48 48 48 48 48 48 47 47 46 45 44 44 43 42 42 41 41 40 40 40 40 39 39 39 40 41 41 42 42 42 42 42 42 43 43 43 44 44 44 45 45 46 46 46 46 46 45 44 44 44 43 43 43 43 43 43 44 44 42 41 40 39 38 38 37 36 36 35 35 35 35 36 36 37 37 38 39 38 36 35
53 52 51 49 48 48 48 48 48 48 47 47 46 45 44 44 43 43 42 42 42 42 42 41 41 41 41 40 40 40 40 40 41 41 41 41 41 41 41 42 42 43 43 43 44 44 45 45 45 45 44 44 43 42 42 43 43 43 43 44 44 44 43 42 41 40 39 38 37 37 36 36 35 34 34 35 35 35 36 36 37 37 36 33 32
52 51 50 48 48 48 48 48 48 47 47 46 45 45 44 44 44 44 44 44 44 43 43 43 43 43 43 42 42 41 41 41 41 41 41 41 41 41 41 41 41 41 42 42 42 43 43 43 43 43 42 42 42 41 41 42 42 43 43 44 43 43 43 42 41 39 38 38 37 36 35 35 35 34 34 34 34 35 35 35 35 35 34 31 30
51 50 49 48 48 48 48 48 47 47 46 46 45 45 45 45 45 45 45 45 45 45 45 45 45 45 44 44 44 43 43 42 42 42 42 42 42 42 42 41 41 41 41 40 40 40 41 41 41 41 40 40 40 40 40 40 41 42 42 43 43 42 42 41 40 39 37 37 36 35 34 34 34 33 33 33 34 34 35 34 33 32 31 29 28
50 49 48 48 48 48 48 48 47 46 46 46 46 46 46 46 46 46 47 47 47 47 47 46 46 46 45 45 45 44 44 43 43 42 42 42 42 42 42 42 41 41 40 40 39 39 39 39 38 38 38 39 39 39 38 39 39 40 41 41 41 41 40 39 38 37 37 36 35 33 33 33 33 32 33 33 33 34 34 34 32 30 28 27 26
49 49 49 49 49 49 48 48 47 47 47 47 47 47 47 47 47 47 47 47 48 48 48 47 47 46 46 45 45 44 44 43 43 42 42 41 41 41 41 41 41 40 40 40 39 39 38 37 36 36 36 36 37 36 37 37 37 38 38 39 39 39 38 37 36 36 35 34 33 32 32 32 32 31 31 32 33 33 33 33 32 29 27 27 26
49 49 49 49 49 49 48 48 48 48 48 48 48 48 48 48 48 48 48 48 48 48 48 48 47 47 46 45 45 44 43 42 41 41 41 41 40 40 39 39 39 39 39 39 39 38 37 36 36 35 36 36 35 35 35 35 35 35 35 35 35 35 35 34 34 33 33 32 31 31 31 31 31 30 31 31 32 32 32 32 31 28 27 26 26
49 49 49 49 48 48 48 48 49 49 48 48 48 48 48 48 48 48 48 48 48 48 48 48 47 46 46 45 44 43 43 42 41 40 39 39 39 38 37 37 37 37 37 37 37 36 35 35 34 34 34 35 34 34 34 34 34 33 32 32 32 31 32 31 31 31 30 30 30 30 30 30 29 29 30 30 30 30 31 31 30 28 26 26 25
49 49 49 49 48 48 49 49 49 49 49 48 48 48 48 47 47 47 47 47 47 47 47 46 46 45 45 44 43 42 41 41 40 40 39 38 37 36 35 34 34 34 34 35 35 34 33 33 32 31 32 32 32 32 32 32 32 31 30 29 29 29 29 29 29 29 29 29 29 29 29 29 28 28 29 29 28 28 29 29 28 27 26 26 25
49 49 49 49 49 49 49 49 49 49 49 49 49 48 48 47 46 46 46 46 46 46 46 46 45 45 44 44 43 41 40 39 39 38 38 37 36 35 33 33 32 32 32 33 32 32 31 30 30 29 29 30 30 30 31 30 29 28 28 27 27 27 27 27 27 27 28 28 28 27 27 27 27 27 27 27 26 26 26 26 26 26 25 25 25
49 49 49 49 49 49 49 49 49 49 49 49 49 48 48 47 45 44 43 43 43 44 44 44 44 44 43 43 42 41 40 39 38 37 37 37 35 34 33 32 31 31 31 31 31 30 30 29 29 28 28 28 28 28 29 28 27 27 26 26 26 25 26 26 26 26 27 27 26 26 26 26 26 26 25 25 25 24 24 24 24 24 24 24 23
49 49 49 49 49 49 49 49 49 49 49 48 48 47 46 46 45 44 42 41 41 40 41 41 42 42 41 41 41 40 40 39 38 37 37 36 35 34 33 32 31 30 31 31 30 30 29 29 28 28 28 28 28 27 27 27 27 26 26 25 25 25 26 26 26 26 26 25 25 24 24 25 25 24 23 23 24 23 22 22 23 23 23 23 22
49 49 49 49 49 49 49 49 49 49 48 47 46 45 45 44 44 43 42 41 40 39 38 38 38 38 38 38 38 37 37 37 37 36 36 35 34 33 32 31 30 29 30 30 30 29 28 28 28 27 27 27 27 27 27 27 26 25 25 25 25 25 25 25 25 24 24 24 23 23 23 23 23 22 21 21 22 22 21 22 22 22 22 22 21
48 48 48 49 49 49 49 48 48 47 46 45 44 44 43 43 42 41 40 40 38 37 36 35 35 35 35 35 35 35 35 35 35 35 34 34 33 32 31 30 29 28 28 28 28 28 28 27 27 27 27 27 27 27 26 26 25 25 24 24 24 24 24 24 23 23 22 22 22 22 22 22 21 20 20 20 20 20 20 21 21 21 21 21 20
48 48 48 48 48 47 46 46 45 44 44 43 43 42 42 41 40 38 37 36 36 35 34 33 33 33 33 33 33 33 33 33 33 34 33 33 32 31 30 29 28 27 26 26 26 26 26 26 26 27 26 26 26 26 26 25 25 24 23 22 22 22 22 22 22 21 21 21 21 21 21 20 19 19 19 18 19 19 19 20 19 19 20 20 20
47 48 47 47 46 45 44 43 42 42 42 41 41 40 39 37 36 35 34 33 33 33 32 32 32 32 31 31 31 31 31 31 31 31 32 32 31 30 29 28 27 26 25 25 25 24 24 24 25 25 25 25 25 25 25 25 24 23 23 22 21 20 20 20 20 20 19 19 20 19 19 18 18 18 17 17 17 18 18 19 19 18 18 19 20
47 47 46 45 44 43 42 41 41 40 40 39 38 37 35 34 33 32 31 31 31 31 31 31 32 32 31 31 31 30 29 29 28 28 28 29 29 28 28 26 26 25 25 25 24 24 24 23 23 23 24 24 23 23 23 23 23 23 22 21 20 19 19 18 19 19 18 18 18 18 17 17 17 17 16 16 16 16 17 17 17 17 16 17 19
45 44 43 42 41 40 40 39 39 38 37 36 35 33 32 31 31 30 30 30 30 30 31 31 32 32 32 32 31 30 28 27 26 25 25 25 26 26 25 25 24 24 24 24 24 24 24 23 23 23 23 23 22 22 22 21 21 21 21 20 19 18 18 18 18 18 17 17 17 16 16 16 15 15 15 15 15 15 15 15 16 16 16 17 18
42 40 39 39 38 38 38 37 36 35 34 33 32 31 30 30 29 29 29 30 30 30 31 31 32 32 32 32 31 29 28 26 24 23 23 23 23 23 23 23 23 22 23 23 24 24 24 23 23 23 23 22 22 21 20 20 20 19 19 19 18 18 18 18 18 17 16 16 16 15 15 14 14 14 14 14 13 14 14 14 14 15 16 17 18
38 38 37 37 37 36 36 34 34 33 32 31 30 30 29 29 29 29 29 30 30 30 31 31 32 32 32 32 30 28 27 25 23 22 21 21 21 21 21 21 21 22 22 22 23 23 23 23 23 22 22 21 21 20 19 18 18 18 18 18 17 17 17 17 16 16 15 15 14 14 13 13 13 13 12 12 12 12 13 13 13 14 15 16 17
36 36 36 36 35 35 33 32 31 30 30 29 29 28 28 28 28 29 29 30 30 31 31 31 31 31 31 30 29 26 24 23 21 20 19 19 19 20 20 21 21 21 21 22 22 22 22 22 22 21 21 20 19 18 17 16 16 16 16 16 16 15 15 15 14 14 14 13 12 12 12 12 12 11 11 10 11 12 12 12 12 14 14 15 16
36 35 35 34 34 33 32 31 30 29 28 28 28 28 28 28 28 29 29 30 30 31 31 32 31 31 30 28 26 24 23 21 20 19 18 18 19 19 20 20 21 21 21 21 21 21 21 20 20 20 19 18 17 16 15 14 13 13 13 13 13 13 12 12 12 12 11 11 11 10 10 10 10 9 9 10 10 10 11 11 12 13 13 13 14
35 34 33 32 32 31 30 29 28 28 28 27 28 28 28 28 29 29 30 30 30 31 31 32 32 30 29 26 24 22 21 19 18 18 18 18 18 19 19 20 20 20 20 20 20 20 19 19 18 17 16 15 14 13 12 11 10 10 10 10 10 9 9 9 10 10 10 9 9 9 9 8 8 8 9 9 8 9 10 11 11 11 12 12 13
34 33 32 31 30 30 29 28 27 27 27 27 27 27 28 28 29 30 30 31 31 31 31 32 31 30 28 25 22 20 19 18 17 17 17 17 18 18 19 19 19 19 19 19 19 18 18 17 16 15 14 12 11 10 9 8 7 7 7 7 6 7 7 8 8 8 7 7 7 7 7 7 7 7 7 7 7 8 9 10 10 10 11 11 12
33 32 31 31 30 29 28 27 27 27 27 27 27 27 28 29 29 30 30 31 31 31 31 31 31 29 26 23 21 19 17 17 17 17 17 17 17 17 18 18 18 18 18 18 17 16 16 15 14 13 11 10 9 7 6 5 4 4 4 4 5 5 6 6 6 6 6 6 6 6 6 7 6 6 5 6 7 8 9 9 9 10 10 11 11
32 32 31 30 30 28 27 27 27 27 27 27 27 28 28 29 30 30 30 31 31 31 31 31 30 27 24 21 19 17 17 16 16 16 16 16 16 16 16 17 17 17 17 16 15 14 14 13 12 11 10 8 7 6 4 3 3 2 2 3 3 4 4 4 5 5 5 5 5 5 5 5 5 4 4 5 6 7 8 8 9 9 10 10 12
32 31 31 30 29 28 28 28 27 27 27 27 27 28 29 29 30 30 31 31 31 31 31 30 28 26 22 19 17 17 16 16 16 16 15 15 15 15 15 15 15 15 15 15 14 13 12 11 10 9 8 7 5 4 3 2 1 1 1 2 3 3 4 5 5 4 4 3 4 4 4 4 3 4 4 5 6 7 7 7 8 8 9 10 11
31 31 30 29 29 29 29 28 28 28 28 28 28 28 29 29 30 30 31 31 31 31 30 29 27 24 20 17 16 16 16 16 16 15 15 14 14 14 14 14 14 14 13 13 12 11 10 9 8 7 6 5 3 2 2 1 0 1 3 4 4 5 5 4 3 3 2 3 3 2 2 3 3 4 4 5 5 6 6 6 7 8 9 10 11
30 30 30 29 29 29 29 29 29 28 28 29 29 29 29 29 29 30 30 31 30 30 29 28 25 22 18 16 15 15 15 15 15 15 14 14 13 13 13 13 13 12 12 11 11 10 9 8 6 5 4 3 1 1 0 1 2 3 4 5 5 4 3 2 2 2 2 2 1 1 2 3 3 4 4 4 5 5 5 5 7 8 9 10 11
Wind_Direction
323 323 323 323 322 321 321 319 319 318 317 316 315 312 310 307 305 303 301 300 298 295 293 292 292 294 296 298 299 300 301 303 305 307 311 314 313 311 310 311 313 314 315 316 318 319 321 322 322 323 322 321 320 318 317 315 315 315 316 317 318 319 320 320 320 320 320 321 322 324 326 327 328 330 331 332 333 335 336 336 336 335 335 334 333
322 322 322 322 321 321 321 319 319 318 316 315 314 312 311 309 306 304 301 300 298 296 294 292 291 291 292 294 296 296 297 299 300 302 306 310 310 308 308 308 309 310 311 312 314 317 318 319 320 321 320 320 319 317 315 314 313 313 314 315 317 318 318 319 320 320 322 322 323 324 327 329 330 331 332 334 335 335 335 335 335 334 334 334 332
319 319 320 320 320 320 320 319 318 317 316 315 314 312 311 309 307 305 302 300 298 296 294 292 290 289 289 289 291 291 293 295 297 298 301 306 307 304 304 307 307 307 307 308 310 313 315 316 318 318 318 317 316 315 312 311 310 310 311 312 314 316 316 317 318 319 320 321 323 325 327 329 330 331 331 332 333 333 334 334 334 334 333 333 332
316 317 318 318 318 318 318 318 317 317 316 315 314 312 311 309 307 305 303 300 298 296 294 292 289 288 287 286 286 287 289 292 295 297 300 303 303 300 300 303 304 304 303 303 305 309 311 313 315 315 316 315 314 312 309 308 307 307 308 309 311 313 314 315 316 317 317 319 321 323 325 327 328 330 331 331 332 333 334 334 334 334 334 334 334
315 316 317 317 317 317 317 317 317 316 315 315 314 312 310 308 307 305 303 301 299 297 295 292 290 288 286 285 285 286 288 292 294 296 298 300 299 297 297 300 300 300 300 299 300 303 306 309 311 312 313 312 311 309 307 305 305 304 305 306 308 309 311 312 313 313 314 316 319 321 323 325 326 327 329 330 331 332 333 333 333 334 334 335 334
315 316 316 316 316 316 316 316 316 315 315 314 313 312 310 308 306 304 303 302 300 298 296 294 291 289 286 286 285 286 288 290 291 293 295 297 297 295 295 297 296 296 297 296 295 298 300 304 308 309 310 310 309 307 304 303 302 302 302 303 304 306 308 310 310 311 312 314 316 318 320 322 323 325 327 328 328 329 331 332 332 333 333 332 331
317 317 317 317 316 315 315 315 315 315 315 315 314 312 310 308 306 304 303 302 300 298 296 295 293 290 287 286 285 285 285 285 287 289 292 295 296 294 294 295 293 291 293 294 292 293 295 298 303 306 307 307 306 305 303 300 299 298 299 299 301 302 304 306 307 309 310 311 313 315 317 319 321 322 324 325 325 326 328 330 331 331 329 327 325
319 319 319 318 317 315 315 315 315 315 315 314 314 313 311 309 307 305 303 302 301 299 297 295 294 292 289 287 285 284 283 283 285 288 290 293 295 294 294 294 290 287 289 291 289 289 291 293 297 301 303 304 304 303 301 299 297 296 295 296 297 299 300 302 304 305 307 309 310 312 313 315 317 320 322 323 324 325 326 326 326 326 324 323 323
320 321 321 320 318 316 316 316 316 315 314 314 313 312 311 309 308 306 304 302 301 299 297 295 294 293 291 288 287 285 285 285 286 287 289 291 293 294 295 294 290 286 285 287 286 285 287 290 293 296 298 300 301 300 299 298 296 294 293 293 293 295 296 298 299 301 303 305 307 309 310 312 314 317 319 321 322 322 322 322 323 323 323 323 322
319 320 321 320 319 317 317 316 316 314 313 312 312 312 310 309 308 306 305 303 301 300 298 297 295 293 292 290 288 287 286 285 285 286 287 289 291 293 294 293 291 287 284 283 282 281 284 287 289 291 293 295 297 298 298 296 295 293 291 290 290 291 292 293 295 297 299 302 304 306 308 309 310 313 316 318 319 319 319 320 321 322 322 322 321
316 317 319 320 318 316 315 316 315 314 313 312 311 311 309 308 307 306 305 304 302 301 300 299 296 294 293 291 290 288 287 286 285 285 286 287 288 291 292 291 290 287 283 281 279 278 281 285 286 287 289 291 293 295 295 295 294 293 291 290 289 289 289 290 291 293 295 298 300 302 304 306 307 309 312 314 316 317 318 319 320 321 321 322 322
315 317 319 318 316 314 314 315 315 314 313 311 310 309 308 306 305 305 304 304 303 302 301 300 298 296 294 292 290 289 287 286 285 285 285 285 286 289 290 290 289 286 282 279 277 277 280 283 284 284 285 287 289 291 293 293 293 293 291 290 289 288 287 288 289 290 292 294 297 300 302 303 305 307 309 312 314 315 316 317 319 320 322 322 323
318 319 319 317 315 314 314 315 315 314 313 311 310 309 307 306 305 304 304 303 303 303 302 301 299 298 296 294 291 289 286 285 284 283 283 284 286 287 287 288 289 286 282 279 277 278 280 282 282 282 282 284 286 288 290 291 292 292 291 290 289 288 287 286 287 288 290 291 293 296 299 301 303 305 307 309 311 313 314 316 318 320 321 322 322
318 319 319 317 315 314 315 315 315 314 312 310 309 308 307 306 305 304 303 303 303 302 302 301 299 297 295 294 291 289 286 284 284 283 283 284 285 285 286 287 287 286 283 280 279 280 281 283 282 280 280 281 283 286 288 290 291 291 290 289 289 288 287 286 286 286 287 289 291 293 296 299 301 303 305 307 310 312 313 315 317 318 320 321 321
316 318 319 317 314 314 314 315 314 313 311 310 308 308 307 306 305 304 303 303 302 301 301 299 298 296 294 292 291 289 287 286 285 284 284 284 284 285 286 286 286 285 283 282 281 281 282 282 281 280 279 279 281 284 286 289 290 290 290 290 289 288 287 287 286 286 286 287 289 290 293 296 299 301 303 306 309 311 312 313 315 317 319 320 320
314 317 317 315 313 313 314 314 313 312 310 309 308 308 308 307 306 305 305 305 303 302 300 298 296 295 293 291 290 289 288 286 286 285 284 284 284 285 285 285 285 285 284 283 282 282 282 282 282 280 279 279 279 281 284 287 289 290 290 290 289 288 287 286 286 286 286 286 287 289 291 293 296 298 301 304 307 309 310 313 315 317 318 319 320
313 315 315 313 312 313 313 313 312 311 310 309 309 309 308 308 307 307 306 306 305 304 302 299 296 293 291 290 289 289 288 286 286 285 284 284 284 285 285 284 284 285 284 284 283 282 282 283 283 282 282 281 280 281 283 284 286 288 289 290 290 288 287 286 286 285 285 286 287 288 289 291 293 296 299 302 305 308 310 312 315 316 318 319 319
313 314 313 312 312 312 312 311 311 310 310 310 310 310 309 308 308 307 306 306 306 306 305 302 297 292 289 288 288 288 288 287 286 286 285 284 284 285 285 284 283 282 283 283 283 283 283 283 283 283 283 283 283 283 283 284 285 286 287 288 289 287 286 287 286 285 285 285 286 287 289 290 292 294 297 300 303 306 309 312 314 316 317 318 317
313 313 312 311 311 311 311 310 310 310 310 311 311 311 310 309 309 308 307 307 307 307 306 305 300 293 289 288 288 287 288 288 287 287 286 285 284 284 284 284 282 281 281 281 282 283 283 283 283 283 283 283 284 284 284 285 285 284 285 286 287 286 286 286 285 284 284 285 285 286 288 289 291 293 295 299 302 306 309 312 314 316 317 317 316
313 312 311 311 310 310 310 310 310 310 310 311 311 311 310 310 309 309 308 308 308 307 308 308 305 298 291 289 288 288 288 289 288 288 287 286 286 285 284 284 283 281 279 279 280 281 283 283 283 282 282 283 283 284 284 284 284 283 283 284 285 285 285 286 285 283 283 284 285 286 287 289 291 294 296 299 302 306 309 311 313 315 316 316 315
312 311 310 310 310 310 310 309 309 310 310 310 311 310 310 310 309 309 308 308 308 308 309 309 308 304 297 292 291 290 290 290 290 289 288 287 286 286 285 284 283 281 280 279 279 280 282 282 282 281 281 282 283 283 283 283 283 282 282 282 283 283 284 285 283 281 281 282 283 284 286 288 291 293 296 298 301 304 307 310 312 314 315 315 314
310 309 309 309 309 309 309 309 309 310 310 310 310 310 310 309 309 308 308 308 308 308 309 309 308 306 303 298 295 294 293 293 292 291 290 288 287 286 286 285 284 283 281 280 280 281 282 282 282 282 282 282 282 283 283 282 282 281 281 281 282 282 283 284 282 280 278 279 281 282 284 286 289 291 294 296 299 303 306 309 311 313 314 314 314
308 308 308 308 309 309 309 309 309 309 309 310 309 309 309 308 308 308 308 308 308 308 307 307 306 305 303 301 298 296 295 294 293 293 291 290 289 288 287 286 285 284 283 283 282 282 282 282 283 283 283 283 283 283 282 282 281 280 280 280 281 281 282 283 282 280 277 277 278 280 281 283 286 289 291 294 297 301 304 307 310 312 313 313 313
307 307 308 308 308 308 309 309 309 309 309 309 308 308 308 308 308 307 307 307 307 306 305 304 303 302 300 299 297 296 295 294 293 293 292 292 291 290 289 288 287 286 285 284 284 283 283 283 283 283 283 283 283 283 282 281 280 280 280 280 280 280 281 281 282 280 277 276 277 278 280 282 284 286 289 292 295 298 302 305 308 310 311 311 311
307 307 308 308 308 308 308 308 308 308 308 308 308 308 308 307 307 307 306 306 305 305 303 302 301 300 299 298 296 295 294 293 293 292 292 291 291 290 289 289 288 287 286 286 285 284 283 282 282 282 283 283 283 282 281 280 280 279 279 280 280 280 280 281 280 279 277 275 275 277 279 280 282 284 287 290 293 296 299 303 306 307 308 309 310
307 307 307 307 308 308 308 308 308 308 308 308 308 308 307 307 307 306 305 305 304 303 302 301 300 299 298 297 296 295 294 293 293 292 291 291 290 290 289 289 289 288 287 286 285 284 283 283 283 283 283 282 282 281 281 280 280 279 279 280 280 280 281 281 280 279 277 275 274 276 277 279 281 283 286 289 292 295 298 301 304 305 306 307 307
306 306 307 307 308 308 308 308 308 308 308 308 308 307 307 307 306 305 305 305 304 303 302 301 300 299 298 297 295 295 294 293 293 292 291 291 290 290 290 290 289 288 288 287 286 285 284 284 284 284 284 283 282 282 282 281 281 280 280 280 281 281 281 281 280 279 277 275 275 276 277 278 280 282 285 289 291 294 298 301 302 303 303 303 302
306 306 306 307 307 307 308 308 308 308 308 308 307 307 307 306 306 306 305 304 304 303 302 301 300 298 298 296 295 294 293 293 292 292 291 290 289 289 289 290 290 289 289 288 287 286 285 285 285 285 284 284 284 284 283 283 282 282 281 281 282 282 282 282 281 279 278 278 278 277 277 277 279 282 284 287 290 293 297 300 301 302 301 300 300
305 306 306 307 307 307 307 307 308 308 308 308 307 307 307 306 306 306 305 304 303 302 301 301 300 299 298 297 296 295 294 293 292 291 291 290 289 289 289 289 290 290 290 289 289 289 288 288 287 287 286 285 285 285 285 284 284 283 283 283 283 283 283 282 281 280 280 279 278 277 276 277 279 281 283 286 290 293 296 299 300 300 300 300 300
305 305 306 306 307 307 307 307 307 307 307 307 307 307 307 306 306 306 305 304 303 302 301 301 300 300 299 298 298 297 296 295 294 293 292 291 291 290 290 291 291 291 290 290 290 291 291 291 291 290 289 288 288 287 286 286 286 286 286 286 285 284 284 283 282 281 280 279 277 276 276 277 278 280 282 285 289 293 295 297 298 299 299 298 300
305 305 305 306 306 306 307 307 307 307 307 307 307 307 306 306 306 305 305 304 303 302 302 301 301 300 299 299 298 298 297 297 296 295 294 294 293 293 293 293 292 291 290 290 290 291 291 291 291 291 290 289 289 288 287 287 287 287 287 287 287 286 284 283 281 280 279 277 276 276 275 276 278 279 281 285 289 291 293 295 297 298 298 298 301
304 305 305 306 306 307 307 307 307 307 307 307 307 307 306 305 305 305 304 303 303 302 302 301 300 299 299 298 298 298 297 297 296 296 295 295 294 294 294 293 292 292 292 292 292 292 291 291 291 291 290 289 289 288 288 288 288 288 287 286 286 285 284 282 280 278 277 277 277 276 276 276 277 278 281 285 288 289 291 293 295 295 296 299 302
304 305 306 306 306 307 307 307 307 307 307 307 306 306 305 305 304 304 303 302 302 301 301 300 300 299 299 299 299 298 298 297 296 296 295 295 295 295 294 294 293 293 292 292 291 292 292 292 292 291 291 290 289 289 289 290 289 288 287 285 284 282 282 281 279 277 277 277 277 277 277 277 277 279 282 286 288 289 289 290 291 292 293 296 300
305 305 306 306 307 307 307 307 307 307 307 307 306 306 306 306 305 305 304 303 302 300 300 299 299 298 298 298 298 298 298 297 297 296 295 295 295 295 295 295 294 294 293 292 291 291 291 291 291 291 291 290 290 289 289 289 289 288 286 284 283 281 279 278 278 277 277 277 276 277 277 276 277 280 284 287 288 289 289 288 288 289 291 295 299
305 306 306 307 307 307 307 307 307 307 307 307 307 307 307 307 307 306 305 304 303 301 300 299 299 298 298 298 297 297 297 296 296 295 295 294 294 294 294 294 295 295 294 293 293 293 292 291 290 289 288 288 288 288 288 288 288 288 287 285 283 282 280 279 278 278 277 277 277 276 276 276 278 282 285 286 286 288 288 287 288 290 293 296 299
306 306 307 307 307 308 308 307 307 308 308 308 308 308 308 308 308 308 307 306 306 305 304 303 302 301 301 300 299 298 298 297 297 296 296 295 295 295 295 295 296 296 296 295 295 295 294 293 291 289 288 287 287 286 286 287 287 287 287 285 284 282 282 281 280 279 278 277 276 275 275 277 281 284 284 284 284 284 284 284 287 290 294 297 300
306 307 307 307 307 307 307 307 308 308 309 309 309 309 310 310 310 310 309 309 308 308 308 307 306 305 304 303 302 302 300 299 299 298 298 297 296 296 296 296 297 298 297 297 296 295 295 294 293 292 290 289 287 287 286 285 285 284 284 283 282 281 280 280 279 278 276 274 274 274 276 279 281 282 282 282 282 281 281 283 286 291 296 298 300
307 307 307 307 307 307 308 308 309 309 310 310 311 311 311 311 311 312 311 311 311 311 311 310 309 308 307 306 305 304 302 301 300 299 299 299 298 298 299 299 300 300 300 299 298 298 297 296 295 293 292 290 289 288 286 285 283 282 280 279 278 277 276 275 274 273 272 272 272 274 276 277 278 279 279 278 277 278 281 284 288 293 297 299 301
307 307 307 307 307 308 309 309 310 311 311 312 312 312 312 313 313 314 314 314 314 314 313 313 312 311 310 309 308 306 305 303 301 299 298 298 299 300 301 302 302 302 302 302 302 301 300 299 297 295 294 292 291 289 288 285 283 281 280 278 277 274 272 271 270 269 269 269 271 272 273 273 274 275 275 274 274 276 280 286 291 294 296 298 301
307 307 307 308 308 309 310 311 312 312 312 312 313 313 314 315 315 316 317 317 317 316 316 315 314 313 313 312 311 310 308 305 303 301 299 298 298 300 301 303 303 303 304 304 303 303 303 302 300 298 296 295 293 291 288 286 283 281 280 278 275 271 268 266 265 266 266 267 268 268 269 270 271 271 270 270 272 277 281 287 291 294 297 300 303
307 307 308 308 309 310 311 312 312 312 313 313 313 314 316 316 317 318 319 319 319 319 318 317 317 316 315 315 314 312 310 308 306 303 301 300 299 300 301 302 303 304 304 304 304 305 305 304 303 301 299 298 296 293 291 288 284 281 278 275 271 266 262 260 261 262 263 263 264 264 265 266 266 266 268 270 274 279 283 287 291 296 301 304 307
307 308 309 310 311 311 312 312 312 312 313 314 314 316 317 318 318 320 320 320 320 320 319 319 319 318 317 316 315 314 312 310 308 306 304 303 302 302 303 304 305 306 306 307 307 307 307 306 306 304 302 301 299 297 294 291 286 281 277 273 269 265 261 259 259 259 258 259 260 260 261 261 261 262 266 271 277 283 286 290 297 303 306 308 312
308 309 310 311 312 312 312 312 312 312 313 314 315 316 317 318 319 320 321 322 322 322 321 321 321 320 319 317 315 313 311 309 308 307 306 305 305 305 306 307 308 309 310 311 310 310 310 309 308 306 305 303 301 298 295 291 286 281 277 273 270 267 264 261 259 257 256 255 255 255 255 256 258 260 265 271 278 284 289 295 303 307 309 314 318
309 310 311 312 312 312 311 312 312 313 314 316 316 317 318 319 320 321 322 323 324 324 324 323 323 322 320 318 315 312 310 308 308 308 307 307 308 308 310 311 312 313 314 314 314 314 313 312 311 309 308 306 303 300 295 290 285 280 276 273 270 267 264 260 256 253 250 248 249 249 250 251 254 260 267 274 280 287 294 301 306 309 315 320 319
310 312 312 312 312 312 312 312 314 315 316 317 317 318 320 320 321 323 324 325 325 326 326 325 325 323 321 318 314 310 307 307 308 308 307 307 310 312 313 314 314 315 316 317 317 317 316 316 315 313 311 309 307 302 298 293 287 281 277 273 268 262 257 252 246 243 241 240 241 242 244 248 255 263 272 279 286 292 299 304 309 316 323 323 317
312 312 312 312 312 312 312 313 314 315 316 317 318 319 320 321 322 324 325 325 327 327 327 327 326 324 321 318 314 309 307 306 307 307 308 310 313 316 317 317 317 318 319 320 319 319 320 319 318 316 316 314 312 308 302 295 289 281 273 267 258 248 242 238 235 233 231 230 231 235 241 250 261 268 276 285 293 298 303 310 320 327 327 323 321
312 313 313 312 312 312 313 313 314 315 316 318 319 320 321 322 323 324 325 326 328 328 328 328 326 324 321 317 313 309 306 305 306 307 310 313 316 318 319 319 320 321 322 323 322 322 322 321 320 320 323 322 319 315 308 299 290 276 261 248 236 230 228 226 222 218 216 217 225 238 250 259 269 276 283 292 298 305 314 325 333 334 330 328 333
313 314 314 313 312 313 313 314 314 316 318 319 320 321 322 323 323 325 326 327 328 329 329 328 326 323 320 316 312 308 307 306 307 309 312 315 318 319 321 322 324 324 324 325 324 323 324 324 324 325 328 328 325 319 312 303 292 269 241 224 214 210 206 199 196 198 204 216 233 249 259 268 278 285 292 303 311 318 329 338 339 335 333 336 343
313 313 313 313 313 313 314 314 315 316 318 319 320 321 322 322 323 325 326 328 329 329 329 328 326 323 319 314 310 308 308 308 310 312 315 317 320 322 324 326 327 327 326 325 325 326 328 329 329 330 331 331 329 322 312 302 280 234 191 170 168 168 172 178 184 192 208 232 249 258 268 278 288 297 310 319 325 333 344 346 338 333 337 345 353
312 312 313 313 313 314 314 315 316 317 317 318 319 320 321 322 323 324 326 328 329 329 329 328 325 322 317 312 309 309 310 312 314 316 318 320 322 324 327 329 328 328 328 328 329 334 336 337 337 338 337 336 333 321 304 285 190 141 136 141 150 158 164 174 187 206 229 246 258 269 278 287 300 315 325 332 341 352 355 345 334 337 350 359 3
311 312 313 314 314 315 315 316 316 317 317 317 318 320 321 322 323 325 326 327 328 329 329 327 324 320 315 310 308 310 312 314 315 317 319 320 322 325 328 328 328 329 332 334 339 343 346 346 347 349 347 346 347 330 249 123 123 129 136 144 151 158 163 175 207 236 246 258 274 283 287 302 319 330 339 355 9 9 355 338 340 355 6 9 10